Location: Unspecified
(0.0000°N, 0.0000°E)
Time: 02:46:18
(UTC+00:00)

Vanguard 2 Rocket - Pass Details

Date: 15 December 2017
Orbit: 556 x 3326 km, 32.9° (Epoch: 20 January)

Event Time Altitude Azimuth Distance (km) Brightness Sun altitude
Rises 18:32:01 0° 291° (WNW) 4,401 11.2 -8.4°
Reaches altitude 10° 18:36:03 10° 311° (NW) 3,887 10.5 -9.3°
Maximum altitude 18:42:41 18° 349° (N) 3,982 10.0 -10.8°
Drops below altitude 10° 18:51:34 10° 26° (NNE) 5,377 10.4 -12.9°
Enters shadow 18:55:01 - 34° (NE) 6,063 10.6 -13.7°
Sets 18:59:05 0° 42° (NE) 6,884 - -14.6°
